Location: Street
(51.1247°N, 2.7429°W)
Time: 05:15:57
(UTC+00:00)

SR - Pass Details

Date: 04 December 2020
Orbit: 575 x 880 km, 66.7° (Epoch: 25 January)

Event Time Altitude Azimuth Distance (km) Brightness Sun altitude
Rises 00:48:34 0° 323° (NW) 3,136 - -59.7°
Reaches altitude 10° 00:50:56 10° 329° (NNW) 2,261 - -59.6°
Maximum altitude 00:55:59 49° 44° (NE) 1,010 - -59.2°
Drops below altitude 10° 01:01:26 10° 119° (ESE) 2,436 - -58.9°
Sets 01:04:03 0° 125° (SE) 3,403 - -58.7°
